W8SZ Weather Reports


time (UTC)temp
C
wind
direction
speed
KPH
gust
KPH
rain 1hr
cm
rain 24hr
cm
rain mn
cm
humidity
%
barometer
mb
20180618113954 17 258 0.0 0.0 0.00 0.00 0.00 100 1010.3
20180618113421 17 258 0.0 0.0 0.00 0.00 0.00 100 1009.8
20180618112932 17 258 0.0 0.0 0.00 0.00 0.00 100 1010.1
20180618112452 17 258 0.0 0.0 0.00 0.00 0.00 100 1010.1
20180618111920 17 258 1.6 0.0 0.00 0.00 0.00 100 1009.6
20180618111447 17 258 0.0 0.0 0.00 0.00 0.00 100 1009.5
20180618110916 18 258 1.6 0.0 0.00 0.00 0.00 100 1009.8
20180618110426 18 258 0.0 0.0 0.00 0.00 0.00 100 1009.9
20180618105958 18 258 1.6 0.0 0.00 0.00 0.00 100 1009.6
20180618105416 18 258 0.0 0.0 0.00 0.00 0.00 100 1009.4
20180618104925 18 258 0.0 0.0 0.00 0.00 0.00 100 1009.8
20180618104414 18 258 1.6 0.0 0.00 0.00 0.00 100 1009.8
20180618103926 18 258 1.6 0.0 0.00 0.00 0.00 100 1009.8
20180618103416 18 258 1.6 0.0 0.00 0.00 0.00 100 1009.8
20180618102928 19 258 3.2 0.0 0.00 0.00 0.00 100 1009.2
20180618102428 20 258 3.2 0.0 0.00 0.00 0.00 100 1009.4
20180618101918 20 258 3.2 0.0 0.00 0.00 0.00 100 1009.8
20180618101427 20 258 0.0 0.0 0.00 0.00 0.00 100 1009.5
20180618100918 20 258 0.0 0.0 0.00 0.00 0.00 100 1009.6
20180618100427 20 258 0.0 0.0 0.00 0.00 0.00 100 1010.0
20180618095919 20 258 0.0 0.0 0.00 0.00 0.00 100 1009.8
20180618095417 20 258 0.0 0.0 0.00 0.00 0.00 100 1009.8
20180618094908 19 258 1.6 0.0 0.00 0.00 0.00 100 1009.9
20180618094417 19 258 0.0 0.0 0.00 0.00 0.00 100 1010.0
20180618093943 19 258 0.0 0.0 0.00 0.00 0.00 100 1009.9
20180618093413 19 258 0.0 0.0 0.00 0.00 0.00 100 1009.7
20180618092922 19 258 0.0 0.0 0.00 0.00 0.00 100 1009.7
20180618092421 19 258 0.0 0.0 0.00 0.00 0.00 100 1009.5
20180618091921 19 258 0.0 0.0 0.00 0.00 0.00 100 1009.4
20180618091418 19 258 1.6 0.0 0.00 0.00 0.00 100 1009.7
20180618090905 19 258 0.0 0.0 0.00 0.00 0.00 100 1009.5
20180618090417 19 258 0.0 0.0 0.00 0.00 0.00 100 1009.7
20180618085947 19 258 1.6 0.0 0.00 0.00 0.00 100 1009.6
20180618085405 19 258 0.0 0.0 0.00 0.00 0.00 100 1009.3
20180618084912 18 258 1.6 0.0 0.00 0.00 0.00 100 1009.5
20180618084403 18 258 1.6 0.0 0.00 0.00 0.00 100 1009.5
20180618083913 18 258 4.8 0.0 0.00 0.00 0.00 100 1009.8
20180618083402 18 258 4.8 0.0 0.00 0.00 0.00 100 1009.5
20180618082913 18 258 4.8 0.0 0.00 0.00 0.00 100 1009.5
20180618082412 18 258 1.6 0.0 0.00 0.00 0.00 100 1009.4
20180618081901 18 258 3.2 0.0 0.00 0.00 0.00 100 1009.4
20180618081428 18 258 1.6 0.0 0.00 0.00 0.00 100 1009.6
20180618080859 18 258 0.0 0.0 0.00 0.00 0.00 100 1009.2
20180618080408 18 258 0.0 0.0 0.00 0.00 0.00 100 1009.2
20180618075921 18 258 0.0 0.0 0.00 0.00 0.00 100 1009.2
20180618075422 18 258 0.0 0.0 0.00 0.00 0.00 100 1009.5
20180618074910 18 258 0.0 0.0 0.00 0.00 0.00 99 1009.5
20180618074400 18 258 0.0 0.0 0.00 0.00 0.00 99 1009.6
20180618073910 18 258 0.0 0.0 0.00 0.00 0.00 98 1009.7
20180618073358 18 258 0.0 0.0 0.00 0.00 0.00 96 1009.6
20180618072908 19 258 1.6 0.0 0.00 0.00 0.00 95 1009.6
20180618072406 19 258 3.2 0.0 0.00 0.00 0.00 96 1010.0
20180618071915 20 258 4.8 0.0 0.00 0.00 0.00 95 1009.9
20180618071402 20 258 4.8 0.0 0.00 0.00 0.00 94 1009.9
20180618070911 20 258 4.8 0.0 0.00 0.00 0.00 92 1010.0
20180618070418 21 258 6.4 0.0 0.00 0.00 0.00 91 1010.1
20180618065905 22 258 6.4 0.0 0.00 0.00 0.00 87 1010.3
20180618065400 23 258 6.4 0.0 0.00 0.00 0.00 88 1010.4
20180618064849 23 258 0.0 0.0 0.00 0.00 0.00 96 1010.0
20180618064358 23 258 1.6 0.0 0.00 0.00 0.00 95 1010.1
20180618063849 23 258 0.0 0.0 0.00 0.00 0.00 95 1010.1
20180618063356 23 258 1.6 0.0 0.00 0.00 0.00 94 1010.2
20180618062909 23 258 0.0 0.0 0.00 0.00 0.00 94 1010.4
20180618062348 23 258 3.2 0.0 0.00 0.00 0.00 94 1010.3
20180618061858 24 258 0.0 0.0 0.00 0.00 0.00 94 1010.0
20180618061346 24 258 1.6 0.0 0.00 0.00 0.00 94 1009.9
20180618060856 24 258 1.6 0.0 0.00 0.00 0.00 94 1010.1
20180618060345 23 258 3.2 0.0 0.00 0.00 0.00 94 1009.9
20180618055857 23 258 0.0 0.0 0.00 0.00 0.00 94 1010.2
20180618055355 23 258 1.6 0.0 0.00 0.00 0.00 94 1009.8
20180618054845 23 258 3.2 0.0 0.00 0.00 0.00 94 1010.1
20180618054353 23 258 6.4 0.0 0.00 0.00 0.00 95 1010.2
20180618053842 23 258 1.6 0.0 0.00 0.00 0.00 95 1010.2
20180618053351 23 258 4.8 0.0 0.00 0.00 0.00 95 1010.7
20180618052923 23 258 4.8 0.0 0.00 0.00 0.00 95 1010.4
20180618052340 23 258 0.0 0.0 0.00 0.00 0.00 95 1010.4
20180618051848 23 258 1.6 0.0 0.00 0.00 0.00 95 1010.6
20180618051412 23 258 3.2 0.0 0.00 0.00 0.00 95 1010.3
20180618050843 23 258 0.0 0.0 0.00 0.00 0.00 94 1010.2
20180618050413 24 258 1.6 0.0 0.00 0.00 0.00 94 1010.4
20180618050003 24 258 3.2 0.0 0.00 0.00 0.00 94 1010.3
20180618045441 24 258 3.2 0.0 0.00 0.00 0.00 94 1010.6
20180618044952 24 258 1.6 0.0 0.00 0.00 0.00 94 1010.4
20180618044502 23 258 4.8 0.0 0.00 0.00 0.00 94 1010.4
20180618043949 23 258 3.2 0.0 0.00 0.00 0.00 95 1010.3
20180618043500 23 257 1.6 0.0 0.00 0.00 0.00 96 1010.4
20180618042951 23 258 1.6 0.0 0.00 0.00 0.00 96 1010.5
20180618042452 23 257 0.0 0.0 0.00 0.00 0.00 96 1010.8
20180618041943 23 257 1.6 0.0 0.00 0.00 0.00 96 1010.7
20180618041511 23 257 6.4 0.0 0.00 0.00 0.00 96 1010.9
20180618040940 23 258 0.0 0.0 0.00 0.00 0.00 96 1010.6
20180618040451 23 257 1.6 0.0 0.00 0.00 0.00 96 1010.8
20180618035943 23 257 1.6 0.0 0.00 0.00 0.00 96 1010.8
20180618035442 23 257 1.6 0.0 0.00 0.00 0.00 96 1011.0
20180618034950 23 257 1.6 0.0 0.00 0.00 0.00 96 1011.0
20180618034439 23 257 3.2 0.0 0.00 0.00 0.00 96 1010.8
20180618033949 23 257 3.2 0.0 0.00 0.00 0.00 96 1011.1
20180618033438 23 258 1.6 0.0 0.00 0.00 0.00 96 1011.1
20180618032951 23 257 3.2 0.0 0.00 0.00 0.00 96 1011.0
20180618032432 23 257 3.2 0.0 0.00 0.00 0.00 96 1010.8
20180618032005 23 257 1.6 0.0 0.00 0.00 0.00 95 1010.7
20180618031435 23 257 3.2 0.0 0.00 0.00 0.00 95 1011.1
20180618030926 23 258 3.2 0.0 0.00 0.00 0.00 94 1010.9
20180618030436 23 257 4.8 0.0 0.00 0.00 0.00 94 1011.1
20180618025946 24 257 3.2 0.0 0.00 0.00 0.00 94 1010.8
20180618025507 24 257 0.0 0.0 0.00 0.00 0.00 94 1011.1
20180618024934 24 257 0.0 0.0 0.00 0.00 0.00 94 1011.0
20180618024437 24 257 1.6 0.0 0.00 0.00 0.00 94 1010.8
20180618023925 24 257 0.0 0.0 0.00 0.00 0.00 94 1010.7
20180618023459 24 257 0.0 0.0 0.00 0.00 0.00 93 1010.9
20180618022946 24 257 4.8 0.0 0.00 0.00 0.00 93 1010.9
20180618022428 25 257 1.6 0.0 0.00 0.00 0.00 92 1010.9
20180618021935 25 257 1.6 0.0 0.00 0.00 0.00 91 1011.0
20180618021424 25 257 1.6 0.0 0.00 0.00 0.00 92 1010.8
20180618020955 25 257 0.0 0.0 0.00 0.00 0.00 91 1010.9
20180618020424 25 257 1.6 0.0 0.00 0.00 0.00 91 1011.0
20180618015932 25 257 1.6 0.0 0.00 0.00 0.00 90 1011.3
20180618015431 25 257 1.6 0.0 0.00 0.00 0.00 90 1010.8
20180618014922 25 257 1.6 0.0 0.00 0.00 0.00 89 1010.8
20180618014430 26 258 0.0 0.0 0.00 0.00 0.00 88 1010.7
20180618013937 26 257 1.6 0.0 0.00 0.00 0.00 87 1010.4
20180618013427 26 257 0.0 0.0 0.00 0.00 0.00 86 1010.3
20180618013001 26 258 0.0 0.0 0.00 0.00 0.00 85 1010.2
20180618012418 26 257 3.2 0.0 0.00 0.00 0.00 85 1010.3
20180618011924 27 257 3.2 0.0 0.00 0.00 0.00 83 1010.1
20180618011433 27 258 1.6 0.0 0.00 0.00 0.00 82 1010.4
20180618010922 27 257 1.6 0.0 0.00 0.00 0.00 81 1010.5
20180618010431 28 257 0.0 0.0 0.00 0.00 0.00 80 1010.2
20180618010003 28 257 1.6 0.0 0.00 0.00 0.00 78 1010.3
20180618005420 28 257 1.6 0.0 0.00 0.00 0.00 77 1010.2
20180618004930 28 258 9.7 0.0 0.00 0.00 0.00 76 1010.2
20180618004420 28 258 3.2 0.0 0.00 0.00 0.00 76 1010.2
20180618003926 28 258 6.4 0.0 0.00 0.00 0.00 76 1010.0
20180618003414 29 258 3.2 0.0 0.00 0.00 0.00 76 1009.9
20180618002924 29 258 8.0 0.0 0.00 0.00 0.00 75 1010.0
20180618002427 29 260 1.6 0.0 0.00 0.00 0.00 75 1010.3
20180618001915 29 261 8.0 0.0 0.00 0.00 0.00 76 1010.1
20180618001425 29 261 8.0 0.0 0.00 0.00 0.00 75 1009.8
20180618000915 30 261 8.0 0.0 0.00 0.00 0.00 73 1010.0
20180618000423 30 261 4.8 0.0 0.00 0.00 0.00 72 1010.3
20180617235935 30 260 8.0 0.0 0.00 0.00 0.00 72 1010.3
20180617235413 30 253 8.0 0.0 0.00 0.00 0.00 72 1010.2
20180617234923 29 252 6.4 0.0 0.00 0.00 0.00 73 1010.2
20180617234428 29 259 24.1 0.0 0.00 0.00 0.00 73 1009.7
20180617233917 29 260 6.4 0.0 0.00 0.00 0.00 73 1010.0
20180617233445 28 262 8.0 0.0 0.00 0.00 0.00 75 1010.0
20180617232915 28 246 3.2 0.0 0.00 0.00 0.00 78 1009.8
20180617232414 27 247 4.8 0.0 0.00 0.00 0.00 79 1009.8
20180617231944 27 247 4.8 0.0 0.00 0.00 0.00 81 1009.8
20180617231413 26 250 11.3 0.0 0.00 0.00 0.00 81 1009.8
20180617230903 25 242 3.2 0.0 0.00 0.00 0.00 86 1009.8
20180617230411 24 243 11.3 0.0 0.00 0.00 0.00 88 1010.0
20180617225921 23 230 6.4 0.0 0.00 0.00 0.00 91 1010.3
20180617225402 22 230 19.3 0.0 0.00 0.00 0.00 94 1010.1
20180617224915 21 221 6.4 0.0 0.00 0.00 0.00 90 1010.1
20180617224424 21 221 9.7 0.0 0.00 0.00 0.00 91 1009.9
20180617223932 21 221 12.9 0.0 0.00 0.00 0.00 91 1010.2
20180617223414 21 218 4.8 0.0 0.00 0.00 0.00 93 1010.3
20180617222923 21 215 4.8 0.0 0.00 0.00 0.00 92 1010.5
20180617222422 21 216 11.3 0.0 0.00 0.00 0.00 92 1010.5
20180617221910 21 216 11.3 0.0 0.00 0.00 0.00 90 1010.3
20180617221358 21 216 11.3 0.0 0.00 0.00 0.00 90 1010.6
20180617220907 21 216 11.3 0.0 0.00 0.00 0.00 90 1010.5
20180617220413 22 216 9.7 0.0 0.00 0.00 0.00 90 1010.8
20180617215906 22 216 9.7 0.0 0.00 0.00 0.00 90 1010.7
20180617215404 22 215 12.9 0.0 0.00 0.00 0.00 90 1010.8
20180617214912 22 215 16.1 0.0 0.00 0.00 0.00 89 1010.7
20180617214401 22 213 6.4 0.0 0.00 0.00 0.00 90 1011.0
20180617213910 22 213 12.9 0.0 0.00 0.00 0.00 90 1010.7
20180617213358 22 213 6.4 0.0 0.00 0.00 0.00 90 1010.7
20180617212905 22 212 6.4 0.0 0.00 0.00 0.00 90 1010.5
20180617212405 23 211 12.9 0.0 0.00 0.00 0.00 89 1010.5
20180617211853 23 215 20.9 0.0 0.00 0.00 0.00 89 1010.5
20180617211401 23 217 9.7 0.0 0.00 0.00 0.00 90 1010.7
20180617210850 23 212 9.7 0.0 0.00 0.00 0.00 89 1010.8
20180617210359 23 208 16.1 0.0 0.00 0.00 0.00 88 1010.8
20180617205902 23 214 14.5 0.0 0.00 0.00 0.00 87 1010.7
20180617205359 23 212 19.3 0.0 0.00 0.00 0.00 89 1010.8
20180617204908 23 223 20.9 0.0 0.00 0.00 0.00 88 1010.5
20180617204357 24 208 24.1 0.0 0.00 0.00 0.00 90 1010.5
20180617203924 23 205 19.3 0.0 0.00 0.00 0.00 88 1010.4
20180617203351 23 217 11.3 0.0 0.00 0.00 0.00 89 1010.8
20180617202901 23 206 17.7 0.0 0.00 0.00 0.00 87 1010.7
20180617202400 23 213 24.1 0.0 0.00 0.00 0.00 90 1011.1
20180617201847 23 211 17.7 0.0 0.00 0.00 0.00 90 1010.5
20180617201414 23 214 12.9 0.0 0.00 0.00 0.00 91 1010.9
20180617200903 23 204 14.5 0.0 0.00 0.00 0.00 90 1010.8
20180617200351 23 209 22.5 0.0 0.00 0.00 0.00 92 1010.9
20180617195923 23 205 20.9 0.0 0.00 0.00 0.00 93 1011.3
20180617195401 23 208 12.9 0.0 0.00 0.00 0.00 93 1011.0
20180617194850 23 206 16.1 0.0 0.00 0.00 0.00 92 1010.7
20180617194354 23 213 17.7 0.0 0.00 0.00 0.00 92 1011.4
20180617193843 23 205 9.7 0.0 0.00 0.00 0.00 93 1011.1
20180617193350 23 205 17.7 0.0 0.00 0.00 0.00 92 1011.2
20180617192900 23 193 17.7 0.0 0.00 0.00 0.00 95 1011.0
20180617192339 22 214 11.3 0.0 0.00 0.00 0.00 95 1011.7
20180617191908 22 207 17.7 0.0 0.00 0.00 0.00 96 1011.4
20180617191354 22 204 11.3 0.0 0.00 0.00 0.00 94 1011.8
20180617190842 22 209 12.9 0.0 0.00 0.00 0.00 96 1011.7
20180617190351 22 209 12.9 0.0 0.00 0.00 0.00 96 1011.8
20180617190023 21 208 4.8 0.0 0.00 0.00 0.00 96 1011.8
20180617185438 21 206 9.7 0.0 0.00 0.00 0.00 94 1012.1
20180617185004 21 205 9.7 0.0 0.00 0.00 0.00 94 1011.9
20180617184452 21 207 12.9 0.0 0.00 0.00 0.00 95 1011.7
20180617183941 21 205 6.4 0.0 0.00 0.00 0.00 95 1012.3
20180617183450 21 203 8.0 0.0 0.00 0.00 0.00 96 1012.5
20180617183000 21 209 12.9 0.0 0.00 0.00 0.00 97 1012.3
20180617182441 21 209 11.3 0.0 0.00 0.00 0.00 97 1012.3
20180617181947 21 207 11.3 0.0 0.00 0.00 0.00 97 1012.0
20180617181455 21 205 8.0 0.0 0.00 0.00 0.00 98 1012.7
20180617180942 20 210 9.7 0.0 0.00 0.00 0.00 99 1012.3
20180617180451 20 211 6.4 0.0 0.00 0.00 0.00 99 1012.8
20180617175949 20 208 9.7 14.5 0.00 0.00 0.00 98 1013.0
20180617175437 20 209 6.4 12.9 0.00 0.00 0.00 98 1013.2
20180617174949 20 208 6.4 9.7 0.00 0.00 0.00 97 1013.0
20180617174452 20 208 6.4 11.3 0.00 0.00 0.00 97 1013.0
20180617173938 20 208 6.4 11.3 0.00 0.00 0.00 97 1013.4
20180617173446 20 208 4.8 12.9 0.00 0.00 0.00 97 1012.9
20180617172950 20 208 6.4 12.9 0.00 0.00 0.00 96 1012.7
20180617172504 20 207 8.0 16.1 0.00 0.00 0.00 96 1012.7
20180617171951 21 210 6.4 16.1 0.00 0.00 0.00 96 1013.3
20180617171456 21 211 9.7 14.5 0.00 0.00 0.00 97 1013.2
20180617170940 21 215 8.0 14.5 0.00 0.00 0.00 97 1013.1
20180617170451 21 218 8.0 14.5 0.00 0.00 0.00 97 1013.2
20180617165953 21 219 11.3 14.5 0.00 0.00 0.00 98 1013.3
20180617165431 21 227 9.7 14.5 0.00 0.00 0.00 97 1013.2
20180617164939 20 232 8.0 12.9 0.00 0.00 0.00 97 1013.4
20180617164443 20 239 4.8 14.5 0.00 0.00 0.00 97 1013.6
20180617163930 20 240 8.0 14.5 0.00 0.00 0.00 98 1013.4
20180617163439 20 242 8.0 14.5 0.00 0.00 0.00 98 1013.8
20180617162945 20 243 4.8 12.9 0.00 0.00 0.00 98 1013.5
20180617162440 19 244 6.4 14.5 0.00 0.00 0.00 97 1013.4
20180617161927 19 245 8.0 14.5 0.00 0.00 0.00 98 1013.7
20180617161435 19 248 6.4 14.5 0.00 0.00 0.00 97 1013.2
20180617160927 19 248 9.7 16.1 0.00 0.00 0.00 99 1013.2
20180617160510 19 249 11.3 16.1 0.00 0.00 0.00 98 1013.5
20180617155434 19 249 8.0 14.5 0.00 0.00 0.00 99 1013.6
20180617154934 19 249 6.4 14.5 0.00 0.00 0.00 97 1013.9
20180617154421 19 249 6.4 16.1 0.00 0.00 0.00 97 1013.4
20180617153928 20 249 8.0 16.1 0.00 0.00 0.00 98 1013.7
20180617153436 20 249 8.0 12.9 0.00 0.00 0.00 97 1013.5
20180617152935 20 249 4.8 14.5 0.00 0.00 0.00 97 1014.2
20180617152446 20 249 6.4 14.5 0.00 0.00 0.00 96 1013.1
20180617151936 21 250 6.4 16.1 0.00 0.00 0.00 95 1013.5
20180617151423 21 250 9.7 16.1 0.00 0.00 0.00 94 1013.2
20180617150931 21 250 8.0 16.1 0.00 0.00 0.00 93 1013.8
20180617150421 22 250 6.4 14.5 0.00 0.00 0.00 91 1013.1
20180617145928 22 253 8.0 16.1 0.00 0.00 0.00 91 1013.6
20180617145425 23 253 6.4 16.1 0.00 0.00 0.00 89 1013.3
20180617144934 24 253 8.0 11.3 0.00 0.00 0.00 85 1013.2
20180617144421 25 253 8.0 12.9 0.00 0.00 0.00 83 1013.4
20180617143914 26 253 6.4 14.5 0.00 0.00 0.00 88 1013.2
20180617143423 26 253 9.7 16.1 0.00 0.00 0.00 90 1013.5
20180617142954 26 254 4.8 16.1 0.00 0.00 0.00 90 1013.4
20180617142424 25 256 4.8 17.7 0.00 0.00 0.00 93 1013.5
20180617141932 25 256 4.8 17.7 0.00 0.00 0.00 94 1013.4
20180617141419 24 252 6.4 17.7 0.00 0.00 0.00 97 1013.4
20180617140926 23 257 6.4 11.3 0.00 0.00 0.00 99 1013.8
20180617140427 23 257 9.7 0.0 0.00 0.00 0.00 94 1013.5
20180617135937 22 212 8.0 0.0 0.00 0.00 0.00 100 1013.6
20180617135414 22 212 4.8 0.0 0.00 0.00 0.00 100 1013.5
20180617134943 21 209 8.0 0.0 0.00 0.00 0.00 100 1013.8
20180617134410 20 209 1.6 0.0 0.00 0.00 0.00 100 1014.0
20180617133915 20 208 3.2 0.0 0.00 0.00 0.00 100 1013.8
20180617133406 20 208 4.8 0.0 0.00 0.00 0.00 100 1013.6
20180617132917 19 208 11.3 0.0 0.00 0.00 0.00 100 1014.0
20180617132414 18 208 6.4 0.0 0.00 0.00 0.00 100 1014.3
20180617131922 18 208 4.8 0.0 0.00 0.00 0.00 100 1013.7
20180617131411 18 208 4.8 0.0 0.00 0.00 0.00 100 1014.2
20180617130917 19 208 6.4 0.0 0.00 0.00 0.00 100 1013.9
20180617130406 20 208 3.2 0.0 0.00 0.00 0.00 100 1013.9
20180617125931 20 208 6.4 0.0 0.00 0.00 0.00 100 1014.1
20180617125411 19 208 3.2 0.0 0.00 0.00 0.00 100 1014.2
20180617124919 19 208 1.6 0.0 0.00 0.00 0.00 100 1013.7
20180617124407 19 208 6.4 0.0 0.00 0.00 0.00 100 1014.0
20180617123916 19 208 8.0 0.0 0.00 0.00 0.00 100 1013.9
20180617123404 19 208 3.2 0.0 0.00 0.00 0.00 100 1013.9
20180617122912 19 208 6.4 0.0 0.00 0.00 0.00 100 1013.6
20180617122410 19 207 3.2 0.0 0.00 0.00 0.00 100 1013.6
20180617121901 18 207 1.6 0.0 0.00 0.00 0.00 100 1013.8
20180617121412 18 207 4.8 0.0 0.00 0.00 0.00 100 1014.0
20180617120858 18 207 3.2 0.0 0.00 0.00 0.00 100 1013.8
20180617120435 18 207 3.2 0.0 0.00 0.00 0.00 100 1013.9
20180617115921 18 207 4.8 0.0 0.00 0.00 0.00 100 1013.9
20180617115356 18 207 3.2 0.0 0.00 0.00 0.00 100 1014.4
20180617114902 18 206 3.2 0.0 0.00 0.00 0.00 100 1013.7
20180617114411 18 206 1.6 0.0 0.00 0.00 0.00 100 1013.8